Total_Precipitation_Accumulation
0.15 0.10 0.07 0.05 0.03 0.01 0.00 0.00 0.00 0.00 0.00 0.01 0.01 0.01 0.01 0.00 0.02 0.07 0.03 0.01 0.12 0.19 0.09 0.03 0.02 0.03 0.03 0.03 0.05 0.03 0.08 0.04 0.04 0.07 0.07 0.03 0.05 0.03 0.02 0.01 0.02 0.05 0.05 0.04 0.04 0.11 0.04 0.00 0.00 0.01 0.00 0.00 0.00 0.00
0.05 0.05 0.05 0.03 0.02 0.01 0.00 0.01 0.00 0.01 0.01 0.00 0.00 0.01 0.01 0.01 0.02 0.06 0.04 0.00 0.03 0.17 0.11 0.03 0.01 0.02 0.02 0.02 0.08 0.12 0.14 0.11 0.16 0.17 0.14 0.13 0.09 0.08 0.05 0.04 0.00 0.03 0.02 0.01 0.03 0.03 0.00 0.00 0.00 0.00 0.00 0.00 0.00 0.00
0.04 0.03 0.01 0.01 0.01 0.01 0.00 0.00 0.01 0.00 0.01 0.01 0.01 0.02 0.02 0.01 0.02 0.05 0.05 0.01 0.06 0.10 0.05 0.01 0.00 0.00 0.00 0.00 0.01 0.07 0.08 0.06 0.08 0.09 0.28 0.30 0.29 0.13 0.08 0.03 0.00 0.00 0.00 0.01 0.01 0.00 0.00 0.00 0.00 0.00 0.00 0.00 0.00 0.00
0.07 0.07 0.05 0.03 0.03 0.02 0.02 0.01 0.01 0.01 0.01 0.01 0.02 0.02 0.02 0.01 0.02 0.05 0.04 0.01 0.05 0.09 0.05 0.00 0.00 0.00 0.00 0.00 0.00 0.03 0.08 0.10 0.23 0.34 0.64 0.69 0.49 0.20 0.14 0.04 0.04 0.02 0.03 0.04 0.01 0.00 0.00 0.00 0.00 0.00 0.00 0.00 0.00 0.00
0.05 0.06 0.05 0.03 0.02 0.03 0.03 0.02 0.02 0.02 0.02 0.02 0.02 0.02 0.02 0.03 0.03 0.03 0.00 0.00 0.02 0.04 0.03 0.00 0.00 0.00 0.00 0.00 0.00 0.00 0.01 0.05 0.16 0.43 0.64 0.49 0.24 0.20 0.12 0.15 0.08 0.00 0.00 0.01 0.01 0.01 0.02 0.01 0.00 0.00 0.00 0.00 0.00 0.00
0.02 0.04 0.05 0.04 0.02 0.02 0.02 0.02 0.03 0.03 0.04 0.03 0.04 0.04 0.04 0.04 0.06 0.00 0.00 0.01 0.01 0.14 0.31 0.14 0.00 0.00 0.00 0.00 0.00 0.00 0.00 0.00 0.03 0.27 0.34 0.26 0.11 0.17 0.36 0.18 0.01 0.00 0.00 0.01 0.02 0.01 0.01 0.00 0.00 0.00 0.00 0.00 0.00 0.00
0.03 0.04 0.05 0.04 0.03 0.03 0.02 0.03 0.04 0.04 0.04 0.03 0.03 0.03 0.04 0.05 0.08 0.02 0.00 0.08 0.11 0.18 0.37 0.25 0.01 0.00 0.00 0.00 0.00 0.00 0.00 0.00 0.03 0.13 0.20 0.12 0.06 0.27 0.40 0.23 0.01 0.00 0.00 0.00 0.00 0.01 0.02 0.01 0.01 0.00 0.00 0.00 0.00 0.00
0.02 0.02 0.04 0.04 0.03 0.03 0.03 0.03 0.03 0.03 0.04 0.04 0.03 0.03 0.05 0.05 0.05 0.04 0.00 0.02 0.14 0.16 0.20 0.15 0.03 0.00 0.00 0.00 0.00 0.00 0.02 0.06 0.16 0.21 0.20 0.16 0.12 0.33 0.47 0.10 0.00 0.00 0.00 0.01 0.02 0.03 0.04 0.04 0.01 0.00 0.00 0.00 0.00 0.00
0.04 0.02 0.02 0.03 0.02 0.02 0.03 0.04 0.04 0.04 0.05 0.04 0.08 0.06 0.01 0.01 0.00 0.00 0.00 0.04 0.09 0.16 0.15 0.08 0.01 0.01 0.01 0.00 0.01 0.02 0.05 0.12 0.12 0.20 0.08 0.11 0.18 0.20 0.04 0.00 0.01 0.02 0.04 0.07 0.03 0.01 0.00 0.00 0.00 0.00 0.00 0.00 0.00 0.00
0.05 0.04 0.03 0.04 0.03 0.02 0.03 0.04 0.06 0.06 0.07 0.19 0.12 0.02 0.00 0.00 0.00 0.02 0.03 0.07 0.18 0.28 0.32 0.19 0.02 0.01 0.01 0.00 0.01 0.03 0.09 0.10 0.17 0.06 0.08 0.21 0.10 0.01 0.01 0.02 0.03 0.06 0.09 0.05 0.03 0.02 0.01 0.00 0.00 0.00 0.00 0.00 0.01 0.01
0.06 0.07 0.06 0.06 0.06 0.05 0.05 0.06 0.07 0.17 0.24 0.15 0.06 0.02 0.00 0.02 0.05 0.02 0.03 0.06 0.11 0.26 0.18 0.04 0.01 0.00 0.01 0.03 0.05 0.14 0.16 0.15 0.20 0.02 0.13 0.20 0.08 0.04 0.02 0.06 0.07 0.07 0.07 0.06 0.05 0.03 0.02 0.02 0.01 0.01 0.02 0.02 0.01 0.04
0.08 0.08 0.09 0.07 0.08 0.07 0.06 0.06 0.11 0.32 0.20 0.13 0.11 0.07 0.03 0.04 0.06 0.09 0.09 0.04 0.05 0.03 0.00 0.00 0.04 0.05 0.10 0.14 0.39 0.45 0.49 0.42 0.30 0.21 0.31 0.20 0.07 0.03 0.04 0.04 0.04 0.06 0.08 0.06 0.06 0.05 0.05 0.04 0.05 0.05 0.02 0.01 0.02 0.01
0.16 0.15 0.11 0.10 0.10 0.10 0.09 0.09 0.13 0.25 0.53 0.50 0.64 0.66 0.41 0.24 0.21 0.18 0.07 0.04 0.01 0.00 0.03 0.11 0.14 0.20 0.21 0.33 0.52 0.49 0.47 0.28 0.18 0.23 0.15 0.04 0.02 0.06 0.10 0.07 0.05 0.04 0.06 0.06 0.05 0.06 0.04 0.02 0.01 0.00 0.00 0.00 0.00 0.00
0.21 0.20 0.21 0.18 0.12 0.12 0.12 0.12 0.15 0.49 0.74 0.95 0.70 0.53 0.21 0.10 0.07 0.00 0.00 0.00 0.01 0.00 0.04 0.09 0.12 0.16 0.16 0.29 0.27 0.31 0.20 0.20 0.25 0.17 0.09 0.06 0.05 0.05 0.05 0.02 0.02 0.01 0.01 0.03 0.03 0.02 0.02 0.02 0.01 0.00 0.00 0.00 0.00 0.00
0.29 0.25 0.29 0.24 0.18 0.13 0.14 0.16 0.33 0.76 0.88 1.14 0.75 0.32 0.11 0.01 0.00 0.00 0.00 0.01 0.02 0.05 0.07 0.09 0.12 0.10 0.09 0.18 0.17 0.19 0.16 0.15 0.09 0.03 0.01 0.01 0.01 0.01 0.01 0.01 0.01 0.01 0.00 0.01 0.01 0.01 0.01 0.00 0.00 0.01 0.01 0.01 0.02 0.05
0.35 0.48 0.32 0.23 0.19 0.20 0.25 0.49 0.72 0.78 1.41 1.10 0.70 0.20 0.02 0.00 0.00 0.01 0.01 0.01 0.07 0.06 0.08 0.14 0.28 0.28 0.12 0.15 0.14 0.16 0.21 0.14 0.04 0.01 0.01 0.01 0.01 0.01 0.02 0.01 0.00 0.01 0.00 0.00 0.00 0.00 0.00 0.00 0.00 0.02 0.03 0.03 0.04 0.05
0.50 0.66 0.24 0.20 0.21 0.32 0.55 0.75 0.93 1.11 0.90 0.71 0.30 0.04 0.03 0.02 0.01 0.01 0.02 0.01 0.05 0.09 0.10 0.21 0.37 0.24 0.16 0.14 0.05 0.02 0.01 0.01 0.00 0.00 0.00 0.00 0.01 0.00 0.00 0.00 0.00 0.00 0.00 0.00 0.00 0.00 0.00 0.00 0.00 0.00 0.01 0.01 0.01 0.01
0.54 0.38 0.17 0.27 0.53 0.77 0.93 0.88 1.04 1.03 0.59 0.15 0.03 0.01 0.01 0.01 0.01 0.00 0.00 0.00 0.05 0.05 0.09 0.16 0.22 0.29 0.27 0.14 0.01 0.00 0.00 0.00 0.00 0.00 0.00 0.00 0.00 0.00 0.00 0.00 0.00 0.00 0.00 0.00 0.00 0.00 0.00 0.00 0.00 0.00 0.00 0.00 0.00 0.00
0.29 0.14 0.21 0.46 0.97 1.48 1.45 1.09 0.42 0.40 0.13 0.04 0.02 0.01 0.00 0.00 0.00 0.00 0.00 0.00 0.02 0.05 0.15 0.32 0.42 0.20 0.02 0.00 0.00 0.00 0.00 0.00 0.00 0.00 0.00 0.00 0.00 0.00 0.00 0.00 0.00 0.00 0.00 0.00 0.00 0.00 0.00 0.00 0.00 0.00 0.00 0.00 0.00 0.00
0.45 0.33 0.31 0.55 1.25 1.46 1.45 1.00 0.51 0.21 0.07 0.01 0.00 0.00 0.00 0.00 0.00 0.00 0.00 0.00 0.00 0.03 0.14 0.20 0.07 0.00 0.00 0.00 0.00 0.00 0.00 0.00 0.00 0.00 0.00 0.00 0.00 0.00 0.00 0.00 0.00 0.00 0.00 0.00 0.00 0.00 0.00 0.00 0.00 0.00 0.00 0.00 0.00 0.00
0.80 0.59 0.66 0.95 1.56 1.67 1.29 0.55 0.32 0.16 0.04 0.00 0.00 0.00 0.00 0.00 0.00 0.00 0.00 0.00 0.00 0.04 0.03 0.00 0.00 0.00 0.00 0.00 0.00 0.00 0.00 0.00 0.00 0.00 0.00 0.00 0.00 0.00 0.00 0.00 0.00 0.00 0.00 0.00 0.00 0.00 0.00 0.00 0.00 0.00 0.00 0.01 0.02 0.01
0.33 0.50 0.81 0.93 1.41 1.35 1.11 0.64 0.34 0.14 0.09 0.06 0.01 0.00 0.00 0.00 0.00 0.00 0.00 0.00 0.00 0.00 0.00 0.00 0.00 0.00 0.00 0.00 0.00 0.00 0.00 0.00 0.00 0.00 0.00 0.00 0.00 0.00 0.00 0.00 0.00 0.00 0.00 0.00 0.00 0.00 0.00 0.00 0.00 0.00 0.02 0.05 0.05 0.05
0.50 0.42 0.60 0.56 0.73 0.70 0.55 0.17 0.15 0.12 0.12 0.09 0.03 0.01 0.00 0.00 0.00 0.00 0.00 0.00 0.00 0.00 0.00 0.00 0.00 0.00 0.00 0.00 0.00 0.00 0.00 0.00 0.02 0.03 0.01 0.00 0.00 0.00 0.00 0.00 0.00 0.00 0.01 0.01 0.00 0.01 0.01 0.00 0.01 0.04 0.08 0.11 0.12 0.16
0.77 0.81 0.72 0.75 0.41 0.29 0.19 0.16 0.12 0.06 0.08 0.07 0.04 0.02 0.00 0.00 0.00 0.00 0.00 0.00 0.00 0.00 0.00 0.00 0.00 0.00 0.00 0.00 0.00 0.00 0.00 0.01 0.04 0.05 0.01 0.00 0.03 0.02 0.00 0.00 0.00 0.01 0.01 0.02 0.03 0.03 0.04 0.06 0.09 0.15 0.15 0.16 0.17 0.22
1.41 1.25 0.64 0.50 0.31 0.21 0.11 0.07 0.08 0.05 0.03 0.00 0.01 0.00 0.00 0.00 0.00 0.00 0.00 0.00 0.00 0.00 0.00 0.00 0.00 0.00 0.00 0.01 0.00 0.00 0.00 0.01 0.06 0.11 0.04 0.03 0.15 0.13 0.04 0.00 0.01 0.01 0.05 0.29 0.26 0.14 0.14 0.16 0.22 0.21 0.17 0.16 0.17 0.16
0.75 0.35 0.49 0.18 0.09 0.04 0.02 0.01 0.01 0.00 0.00 0.01 0.00 0.00 0.00 0.00 0.00 0.00 0.00 0.00 0.00 0.00 0.00 0.00 0.00 0.00 0.00 0.00 0.00 0.00 0.00 0.01 0.09 0.15 0.04 0.05 0.12 0.16 0.14 0.07 0.04 0.01 0.06 0.46 0.56 0.38 0.23 0.17 0.25 0.20 0.18 0.13 0.15 0.22
0.32 0.15 0.11 0.04 0.04 0.02 0.02 0.00 0.00 0.00 0.01 0.00 0.00 0.00 0.00 0.04 0.01 0.00 0.00 0.00 0.00 0.00 0.00 0.00 0.00 0.00 0.00 0.00 0.00 0.01 0.01 0.03 0.11 0.13 0.09 0.06 0.06 0.10 0.29 0.47 0.31 0.08 0.13 0.44 0.50 0.42 0.35 0.24 0.24 0.19 0.15 0.10 0.12 0.13
0.05 0.00 0.02 0.01 0.00 0.00 0.00 0.00 0.00 0.00 0.00 0.00 0.00 0.00 0.00 0.00 0.00 0.00 0.00 0.00 0.00 0.00 0.00 0.00 0.00 0.00 0.00 0.03 0.07 0.12 0.10 0.04 0.02 0.02 0.03 0.01 0.06 0.23 0.31 0.34 0.31 0.34 0.41 0.43 0.50 0.44 0.36 0.30 0.23 0.17 0.14 0.12 0.10 0.11
0.06 0.00 0.00 0.01 0.01 0.00 0.00 0.00 0.00 0.00 0.00 0.00 0.00 0.00 0.00 0.00 0.00 0.00 0.00 0.00 0.00 0.00 0.00 0.00 0.00 0.01 0.02 0.03 0.05 0.14 0.25 0.23 0.29 0.16 0.05 0.04 0.07 0.16 0.35 0.36 0.35 0.37 0.42 0.41 0.37 0.47 0.42 0.36 0.30 0.26 0.15 0.10 0.11 0.17
0.01 0.00 0.00 0.00 0.00 0.00 0.00 0.00 0.00 0.00 0.00 0.00 0.00 0.00 0.00 0.00 0.00 0.00 0.00 0.00 0.00 0.00 0.01 0.05 0.11 0.18 0.15 0.12 0.11 0.10 0.25 0.34 0.37 0.41 0.28 0.15 0.14 0.15 0.22 0.29 0.33 0.36 0.43 0.47 0.41 0.35 0.37 0.32 0.26 0.23 0.24 0.21 0.20 0.23
0.00 0.00 0.00 0.00 0.00 0.00 0.00 0.00 0.00 0.00 0.00 0.00 0.00 0.00 0.00 0.00 0.00 0.00 0.00 0.01 0.03 0.08 0.12 0.10 0.10 0.22 0.30 0.16 0.18 0.15 0.12 0.16 0.24 0.31 0.37 0.35 0.28 0.28 0.28 0.30 0.36 0.40 0.43 0.47 0.42 0.38 0.35 0.26 0.18 0.14 0.12 0.09 0.12 0.14
0.00 0.00 0.00 0.00 0.00 0.00 0.00 0.00 0.00 0.00 0.00 0.00 0.00 0.00 0.00 0.00 0.00 0.00 0.01 0.09 0.17 0.21 0.22 0.21 0.16 0.12 0.17 0.18 0.18 0.21 0.20 0.16 0.15 0.17 0.22 0.26 0.23 0.20 0.20 0.22 0.24 0.28 0.33 0.35 0.31 0.29 0.26 0.23 0.18 0.15 0.14 0.15 0.15 0.16
0.00 0.00 0.00 0.00 0.00 0.00 0.00 0.00 0.00 0.00 0.00 0.00 0.00 0.00 0.01 0.04 0.05 0.05 0.09 0.12 0.15 0.12 0.08 0.07 0.07 0.09 0.12 0.13 0.13 0.14 0.14 0.14 0.14 0.16 0.18 0.19 0.19 0.17 0.15 0.11 0.11 0.11 0.14 0.25 0.26 0.20 0.16 0.16 0.14 0.11 0.09 0.11 0.14 0.17